CW1662 Weather Reports


time (UTC)temp
C
wind
direction
speed
KPH
gust
KPH
rain 1hr
cm
rain 24hr
cm
rain mn
cm
humidity
%
barometer
mb
20260509162341 15 131 0.0 3.2 0.00 0.20 0.20 82 1009.9
20260509161828 15 131 0.0 4.8 0.00 0.20 0.20 83 1009.9
20260509161333 15 130 1.6 4.8 0.00 0.20 0.20 83 1009.9
20260509160838 15 130 3.2 4.8 0.03 0.20 0.20 83 1009.8
20260509160402 15 131 0.0 4.8 0.03 0.20 0.20 83 1009.8
20260509155845 15 182 1.6 4.8 0.03 0.20 0.20 83 1009.7
20260509155328 15 108 1.6 4.8 0.03 0.20 0.20 84 1009.8
20260509154853 15 151 1.6 8.0 0.03 0.20 0.20 84 1009.9
20260509154336 15 109 0.0 8.0 0.03 0.20 0.20 83 1009.7
20260509153901 15 178 1.6 6.4 0.03 0.20 0.20 82 1009.8
20260509153325 15 219 4.8 6.4 0.03 0.20 0.20 82 1009.7
20260509152829 15 205 3.2 4.8 0.03 0.20 0.20 83 1009.7
20260509152337 15 111 0.0 4.8 0.03 0.20 0.20 84 1009.7
20260509151841 15 152 1.6 4.8 0.03 0.20 0.20 85 1009.7
20260509151326 15 58 1.6 4.8 0.03 0.20 0.20 85 1009.6
20260509150830 14 342 1.6 4.8 0.00 0.18 0.18 85 1009.8
20260509150333 14 342 1.6 4.8 0.00 0.18 0.18 87 1009.8
20260509145841 14 346 1.6 4.8 0.00 0.18 0.18 88 1009.9
20260509145324 13 346 1.6 4.8 0.00 0.18 0.18 87 1010.1
20260509144831 13 346 3.2 4.8 0.03 0.18 0.18 89 1010.1
20260509144336 13 5 3.2 4.8 0.03 0.18 0.18 89 1009.9
20260509143841 13 94 1.6 3.2 0.03 0.18 0.18 89 1010.0
20260509143328 13 94 0.0 1.6 0.05 0.18 0.18 90 1010.1
20260509142835 13 80 0.0 1.6 0.08 0.18 0.18 90 1010.1
20260509142321 13 80 0.0 1.6 0.08 0.18 0.18 90 1010.1
20260509141829 13 80 0.0 3.2 0.10 0.18 0.18 90 1010.0
20260509141334 13 80 0.0 3.2 0.10 0.18 0.18 90 1009.9
20260509140857 13 92 1.6 3.2 0.10 0.18 0.18 90 1009.8
20260509140322 13 115 1.6 3.2 0.10 0.18 0.18 90 1009.8
20260509135830 13 115 0.0 3.2 0.10 0.18 0.18 90 1009.9
20260509135334 13 115 0.0 3.2 0.13 0.18 0.18 89 1010.0
20260509134838 13 111 1.6 3.2 0.10 0.15 0.15 89 1010.0
20260509134402 13 80 1.6 3.2 0.10 0.15 0.15 89 1009.9
20260509133827 13 74 0.0 1.6 0.13 0.15 0.15 89 1009.9
20260509133339 13 109 0.0 1.6 0.10 0.13 0.13 88 1009.9
20260509132844 13 109 0.0 3.2 0.10 0.13 0.13 88 1010.0
20260509132347 13 109 1.6 3.2 0.08 0.10 0.10 88 1010.0
20260509131851 13 127 0.0 3.2 0.05 0.08 0.08 88 1009.9
20260509131334 13 118 1.6 4.8 0.05 0.08 0.08 87 1009.9
20260509130839 13 118 1.6 4.8 0.05 0.08 0.08 87 1009.9
20260509130343 13 28 0.0 1.6 0.05 0.08 0.08 86 1010.0
20260509125828 13 28 0.0 4.8 0.05 0.08 0.08 86 1010.0
20260509125330 13 28 1.6 4.8 0.05 0.05 0.05 85 1010.0
20260509124838 13 28 0.0 3.2 0.05 0.05 0.05 85 1009.8
20260509124403 13 28 1.6 4.8 0.05 0.05 0.05 84 1009.8
20260509123825 13 21 1.6 4.8 0.03 0.03 0.03 84 1009.8
20260509123332 13 21 1.6 4.8 0.03 0.03 0.03 84 1009.8
20260509122843 13 21 0.0 6.4 0.03 0.03 0.03 83 1009.9
20260509122327 13 360 3.2 6.4 0.03 0.03 0.03 82 1010.0
20260509121852 13 348 4.8 6.4 0.03 0.03 0.03 82 1010.0
20260509121354 13 360 4.8 6.4 0.03 0.03 0.03 82 1010.0
20260509120841 13 15 3.2 6.4 0.03 0.03 0.03 82 1010.0
20260509120345 13 15 1.6 6.4 0.03 0.03 0.03 82 1010.0
20260509115829 13 15 3.2 6.4 0.03 0.03 0.03 82 1010.2
20260509115332 13 26 3.2 6.4 0.00 0.00 0.00 82 1010.2
20260509114857 13 351 3.2 8.0 0.00 0.00 0.00 83 1010.2
20260509114401 13 360 4.8 8.0 0.00 0.00 0.00 83 1010.0
20260509113824 13 322 3.2 4.8 0.00 0.00 0.00 83 1010.2
20260509113332 13 288 0.0 3.2 0.00 0.00 0.00 83 1010.2
20260509112856 13 288 0.0 1.6 0.00 0.00 0.00 83 1010.3
20260509112339 12 9 0.0 1.6 0.00 0.00 0.00 82 1010.1
20260509111904 12 9 0.0 1.6 0.00 0.00 0.00 82 1010.1
20260509111327 12 9 0.0 1.6 0.00 0.00 0.00 81 1009.9
20260509110834 12 9 0.0 3.2 0.00 0.00 0.00 81 1010.0
20260509110342 12 9 1.6 3.2 0.00 0.00 0.00 81 1009.7
20260509105847 12 9 0.0 3.2 0.00 0.00 0.00 81 1009.6
20260509105329 12 9 1.6 3.2 0.00 0.00 0.00 81 1009.3
20260509104834 12 9 0.0 3.2 0.00 0.00 0.00 81 1009.6
20260509104338 12 9 0.0 4.8 0.00 0.00 0.00 81 1009.6
20260509103843 12 9 3.2 4.8 0.00 0.00 0.00 81 1009.4
20260509103327 12 11 3.2 4.8 0.00 0.00 0.00 84 1009.3
20260509102831 12 11 0.0 1.6 0.00 0.00 0.00 85 1009.3
20260509102358 12 11 1.6 3.2 0.00 0.00 0.00 85 1009.3
20260509101841 12 11 0.0 4.8 0.00 0.00 0.00 85 1009.5
20260509101326 12 11 3.2 4.8 0.00 0.00 0.00 85 1009.4
20260509100834 12 11 1.6 3.2 0.00 0.00 0.00 84 1009.2
20260509100339 12 11 1.6 3.2 0.00 0.00 0.00 83 1009.1
20260509095827 12 11 1.6 3.2 0.00 0.00 0.00 82 1009.0
20260509095330 12 11 0.0 1.6 0.00 0.00 0.00 81 1008.8
20260509094855 12 11 0.0 0.0 0.00 0.00 0.00 81 1008.8
20260509094338 12 11 0.0 0.0 0.00 0.00 0.00 81 1008.7
20260509093902 12 11 0.0 1.6 0.00 0.00 0.00 81 1008.7
20260509093328 12 11 0.0 1.6 0.00 0.00 0.00 81 1008.7
20260509092833 12 11 0.0 3.2 0.00 0.00 0.00 82 1008.8
20260509092357 12 11 1.6 3.2 0.00 0.00 0.00 81 1008.9
20260509091822 12 11 0.0 0.0 0.00 0.00 0.00 81 1008.9
20260509091330 12 11 0.0 0.0 0.00 0.00 0.00 81 1008.9
20260509090834 12 11 0.0 0.0 0.00 0.00 0.00 81 1008.8
20260509090343 12 11 0.0 0.0 0.00 0.00 0.00 81 1008.8
20260509085827 12 11 0.0 0.0 0.00 0.00 0.00 81 1008.9
20260509085331 12 11 0.0 0.0 0.00 0.00 0.00 81 1008.9
20260509084854 12 11 0.0 0.0 0.00 0.00 0.00 81 1008.9
20260509084341 12 11 0.0 0.0 0.00 0.00 0.00 81 1009.0
20260509083846 12 11 0.0 1.6 0.00 0.00 0.00 82 1009.0
20260509083328 12 11 0.0 1.6 0.00 0.00 0.00 82 1009.0
20260509082836 12 11 0.0 1.6 0.00 0.00 0.00 82 1009.0
20260509082339 12 11 0.0 1.6 0.00 0.00 0.00 82 1009.1
20260509081844 12 11 0.0 1.6 0.00 0.00 0.00 82 1009.1
20260509081328 12 11 0.0 1.6 0.00 0.00 0.00 82 1009.0
20260509080833 12 11 0.0 1.6 0.00 0.00 0.00 83 1009.2
20260509080401 12 11 0.0 1.6 0.00 0.00 0.00 82 1009.1
20260509075828 12 11 0.0 1.6 0.00 0.00 0.00 82 1009.1
20260509075332 12 11 0.0 0.0 0.00 0.00 0.00 81 1009.0
20260509074836 12 11 0.0 0.0 0.00 0.00 0.00 81 1009.0
20260509074341 12 11 0.0 1.6 0.00 0.00 0.00 81 1009.0
20260509073825 12 12 0.0 1.6 0.00 0.00 0.00 80 1009.0
20260509073330 12 11 0.0 1.6 0.00 0.00 0.00 80 1009.0
20260509072835 12 11 0.0 1.6 0.00 0.00 0.00 79 1009.1
20260509072358 12 11 0.0 1.6 0.00 0.00 0.00 79 1009.0
20260509071902 12 11 0.0 1.6 0.00 0.00 0.00 79 1008.9
20260509071325 12 11 0.0 3.2 0.00 0.00 0.00 78 1009.2
20260509070830 12 11 0.0 3.2 0.00 0.00 0.00 78 1009.1
20260509070334 12 11 0.0 4.8 0.00 0.00 0.00 79 1009.2
20260509065826 12 11 0.0 6.4 0.00 0.00 0.00 79 1009.2
20260509065329 12 340 3.2 6.4 0.00 0.00 0.00 79 1009.3
20260509064834 12 340 3.2 4.8 0.00 0.00 0.00 80 1009.4
20260509064339 12 340 3.2 4.8 0.00 0.00 0.00 80 1009.3
20260509063825 12 340 1.6 3.2 0.00 0.00 0.00 79 1009.3
20260509063352 12 340 1.6 3.2 0.00 0.00 0.00 78 1009.3
20260509062840 12 340 1.6 3.2 0.00 0.00 0.00 77 1009.1
20260509062343 12 340 0.0 1.6 0.00 0.00 0.00 77 1009.1
20260509061828 12 340 0.0 1.6 0.00 0.00 0.00 76 1009.1
20260509061332 12 340 0.0 1.6 0.00 0.00 0.00 77 1009.1
20260509060837 12 340 0.0 1.6 0.00 0.00 0.00 76 1009.2
20260509060325 12 340 0.0 1.6 0.00 0.00 0.00 76 1009.2
20260509055830 13 340 0.0 1.6 0.00 0.00 0.00 76 1009.3
20260509055354 13 340 0.0 1.6 0.00 0.00 0.00 75 1009.3
20260509054857 13 340 0.0 0.0 0.00 0.00 0.00 75 1009.4
20260509054341 13 340 0.0 1.6 0.00 0.00 0.00 75 1009.5
20260509053825 13 340 0.0 3.2 0.00 0.00 0.00 75 1009.4
20260509053329 13 340 0.0 3.2 0.00 0.00 0.00 75 1009.6
20260509052836 13 340 0.0 3.2 0.00 0.00 0.00 75 1009.5
20260509052342 13 340 0.0 3.2 0.00 0.00 0.00 74 1009.6
20260509051826 13 340 1.6 3.2 0.00 0.00 0.00 75 1009.5
20260509051331 13 340 1.6 3.2 0.00 0.00 0.00 75 1009.5
20260509050834 13 340 1.6 4.8 0.00 0.00 0.00 76 1009.6
20260509050326 13 340 1.6 4.8 0.00 0.00 0.00 76 1009.6
20260509045830 13 340 3.2 6.4 0.00 0.00 0.00 75 1009.6
20260509045357 13 340 3.2 6.4 0.00 0.00 0.00 75 1009.6
20260509044841 13 340 3.2 3.2 0.00 0.00 0.00 73 1009.3
20260509044325 13 340 0.0 1.6 0.00 0.00 0.00 71 1009.3
20260509043853 14 340 0.0 3.2 0.00 0.00 0.00 71 1009.4
20260509043338 14 340 1.6 3.2 0.00 0.00 0.00 70 1009.4
20260509042826 14 340 0.0 1.6 0.00 0.00 0.00 67 1009.4
20260509042330 14 340 0.0 1.6 0.00 0.00 0.00 68 1009.5
20260509041834 14 340 0.0 1.6 0.00 0.00 0.00 68 1009.6
20260509041339 14 340 0.0 1.6 0.00 0.00 0.00 68 1009.8
20260509040903 14 340 0.0 1.6 0.00 0.00 0.00 68 1009.8
20260509040331 14 340 0.0 1.6 0.00 0.00 0.00 68 1009.8
20260509035836 14 340 0.0 1.6 0.00 0.00 0.00 67 1009.8
20260509035338 14 340 0.0 1.6 0.00 0.00 0.00 67 1010.0
20260509034824 14 340 0.0 4.8 0.00 0.00 0.00 67 1010.0
20260509034331 15 340 1.6 4.8 0.00 0.00 0.00 66 1010.0
20260509033839 15 340 0.0 6.4 0.00 0.00 0.00 64 1009.9
20260509033343 15 340 0.0 6.4 0.00 0.00 0.00 64 1009.9
20260509032828 15 339 3.2 6.4 0.00 0.00 0.00 63 1010.0
20260509032331 15 5 0.0 6.4 0.00 0.00 0.00 64 1010.0
20260509031836 14 325 3.2 6.4 0.00 0.00 0.00 65 1010.0
20260509031325 15 325 1.6 6.4 0.00 0.00 0.00 65 1010.1
20260509030829 15 19 0.0 1.6 0.00 0.00 0.00 63 1010.0
20260509030354 15 19 0.0 6.4 0.00 0.00 0.00 62 1010.0
20260509025837 15 21 4.8 6.4 0.00 0.00 0.00 62 1010.1
20260509025341 16 116 0.0 4.8 0.00 0.00 0.00 59 1010.1
20260509024826 16 116 0.0 3.2 0.00 0.00 0.00 59 1010.0
20260509024329 16 116 0.0 3.2 0.00 0.00 0.00 59 1010.0
20260509023837 16 135 1.6 3.2 0.00 0.00 0.00 60 1010.0
20260509023341 16 114 1.6 4.8 0.00 0.00 0.00 60 1010.0
20260509022826 16 112 1.6 4.8 0.00 0.00 0.00 61 1010.2
20260509022329 16 90 0.0 0.0 0.00 0.00 0.00 60 1010.2
20260509021834 15 90 0.0 0.0 0.00 0.00 0.00 60 1010.4
20260509021343 15 90 0.0 0.0 0.00 0.00 0.00 60 1010.3
20260509020827 15 90 0.0 0.0 0.00 0.00 0.00 60 1010.3
20260509020332 15 90 0.0 0.0 0.00 0.00 0.00 59 1010.2
20260509015835 15 90 0.0 0.0 0.00 0.00 0.00 59 1010.0
20260509015342 16 90 0.0 0.0 0.00 0.00 0.00 59 1010.0
20260509014826 16 90 0.0 0.0 0.00 0.00 0.00 58 1010.1
20260509014331 16 90 0.0 0.0 0.00 0.00 0.00 58 1010.2
20260509013835 16 90 0.0 0.0 0.00 0.00 0.00 57 1010.1
20260509013340 16 90 0.0 0.0 0.00 0.00 0.00 57 1010.1
20260509012905 16 90 0.0 0.0 0.00 0.00 0.00 57 1010.1
20260509012327 16 90 0.0 0.0 0.00 0.00 0.00 57 1010.1
20260509011834 16 90 0.0 1.6 0.00 0.00 0.00 57 1010.1
20260509011402 16 90 0.0 1.6 0.00 0.00 0.00 57 1010.1
20260509010848 16 90 0.0 3.2 0.00 0.00 0.00 57 1009.9
20260509010334 16 90 0.0 3.2 0.00 0.00 0.00 58 1009.8
20260509005902 16 348 0.0 1.6 0.00 0.00 0.00 58 1009.8
20260509005405 16 348 0.0 3.2 0.00 0.00 0.00 56 1009.7
20260509004828 16 348 1.6 3.2 0.00 0.00 0.00 56 1009.8
20260509004333 16 348 0.0 1.6 0.00 0.00 0.00 55 1009.7
20260509003837 16 348 0.0 1.6 0.00 0.00 0.00 54 1009.8
20260509003341 16 348 0.0 1.6 0.00 0.00 0.00 55 1009.8
20260509002828 16 348 0.0 1.6 0.00 0.00 0.00 55 1009.8
20260509002332 16 348 0.0 1.6 0.00 0.00 0.00 54 1009.8
20260509001837 16 348 0.0 1.6 0.00 0.00 0.00 53 1009.8
20260509001401 17 348 0.0 1.6 0.00 0.00 0.00 54 1009.6
20260509000843 17 348 0.0 1.6 0.00 0.00 0.00 52 1009.6
20260509000334 17 348 0.0 1.6 0.00 0.00 0.00 51 1009.7
20260508235839 18 348 0.0 1.6 0.00 0.00 0.00 51 1009.7
20260508235325 18 348 0.0 1.6 0.00 0.00 0.00 48 1009.8
20260508234850 18 348 0.0 1.6 0.00 0.00 0.00 47 1009.7
20260508234333 19 348 0.0 3.2 0.00 0.00 0.00 46 1009.6
20260508233841 19 348 0.0 4.8 0.00 0.00 0.00 45 1009.4
20260508233345 19 348 1.6 4.8 0.00 0.00 0.00 45 1009.4
20260508232829 19 348 1.6 8.0 0.00 0.00 0.00 47 1009.3
20260508232332 19 336 4.8 8.0 0.00 0.00 0.00 47 1009.2
20260508231839 20 320 4.8 6.4 0.00 0.00 0.00 47 1009.3
20260508231404 20 319 4.8 8.0 0.00 0.00 0.00 44 1009.4
20260508230827 20 302 3.2 8.0 0.00 0.00 0.00 47 1009.5
20260508230332 20 313 4.8 11.3 0.00 0.00 0.00 47 1009.5
20260508225841 20 288 6.4 11.3 0.00 0.00 0.00 45 1009.6
20260508225344 20 275 4.8 8.0 0.00 0.00 0.00 46 1009.6
20260508224829 20 281 4.8 9.7 0.00 0.00 0.00 45 1009.6
20260508224333 20 284 3.2 9.7 0.00 0.00 0.00 45 1009.5
20260508223838 20 281 4.8 11.3 0.00 0.00 0.00 43 1009.4
20260508223325 20 273 6.4 14.5 0.00 0.00 0.00 42 1009.6
20260508222830 20 254 6.4 14.5 0.00 0.00 0.00 41 1009.7
20260508222334 20 312 6.4 11.3 0.00 0.00 0.00 43 1009.7
20260508221858 20 270 6.4 11.3 0.00 0.00 0.00 43 1009.7
20260508221342 20 297 6.4 16.1 0.00 0.00 0.00 43 1009.7
20260508220826 20 281 6.4 16.1 0.00 0.00 0.00 43 1009.7
20260508220335 20 273 9.7 16.1 0.00 0.00 0.00 42 1009.8
20260508215839 20 285 8.0 14.5 0.00 0.00 0.00 43 1009.7
20260508215341 20 265 8.0 24.1 0.00 0.00 0.00 42 1009.7
20260508214829 20 282 12.9 24.1 0.00 0.00 0.00 41 1009.7
20260508214333 20 274 14.5 19.3 0.00 0.00 0.00 42 1009.8
20260508213858 20 298 9.7 17.7 0.00 0.00 0.00 42 1009.8
20260508213341 20 283 9.7 19.3 0.00 0.00 0.00 42 1009.8
20260508212845 20 281 11.3 19.3 0.00 0.00 0.00 40 1009.8
20260508212328 20 254 3.2 14.5 0.00 0.00 0.00 41 1009.7
20260508211833 20 259 8.0 19.3 0.00 0.00 0.00 40 1009.8
20260508211338 20 264 12.9 19.3 0.00 0.00 0.00 39 1009.7
20260508210826 20 304 11.3 17.7 0.00 0.00 0.00 40 1009.8
20260508210331 20 264 6.4 20.9 0.00 0.00 0.00 42 1009.8
20260508205834 20 272 16.1 24.1 0.00 0.00 0.00 39 1009.8
20260508205357 20 256 12.9 24.1 0.00 0.00 0.00 39 1009.8
20260508204822 20 256 6.4 17.7 0.00 0.00 0.00 39 1009.8
20260508204329 20 262 6.4 20.9 0.00 0.00 0.00 40 1009.8
20260508203836 20 271 12.9 20.9 0.00 0.00 0.00 39 1009.9
20260508203341 20 287 9.7 19.3 0.00 0.00 0.00 39 1010.0
20260508202826 20 263 11.3 19.3 0.00 0.00 0.00 39 1010.0
20260508202349 20 267 9.7 20.9 0.00 0.00 0.00 39 1010.1
20260508201853 20 273 14.5 24.1 0.00 0.00 0.00 38 1010.1
20260508201336 20 268 17.7 25.7 0.00 0.00 0.00 37 1010.1
20260508200841 20 275 16.1 22.5 0.00 0.00 0.00 38 1010.0
20260508200329 20 269 11.3 22.5 0.00 0.00 0.00 37 1010.1
20260508195834 20 300 9.7 30.6 0.00 0.00 0.00 38 1010.1
20260508195338 20 247 16.1 30.6 0.00 0.00 0.00 36 1010.1
20260508194842 20 263 9.7 25.7 0.00 0.00 0.00 37 1010.3
20260508194326 21 265 17.7 25.7 0.00 0.00 0.00 37 1010.2
20260508193833 21 278 12.9 25.7 0.00 0.00 0.00 36 1010.2
20260508193341 21 269 9.7 19.3 0.00 0.00 0.00 38 1010.2
20260508192826 21 284 11.3 19.3 0.00 0.00 0.00 38 1010.2
20260508192329 20 262 12.9 19.3 0.00 0.00 0.00 37 1010.4
20260508191852 20 261 4.8 9.7 0.00 0.00 0.00 39 1010.4
20260508191339 20 257 4.8 16.1 0.00 0.00 0.00 38 1010.4
20260508190827 20 258 4.8 17.7 0.00 0.00 0.00 40 1010.4
20260508190335 20 237 8.0 17.7 0.00 0.00 0.00 38 1010.5
20260508185840 20 271 8.0 17.7 0.00 0.00 0.00 38 1010.7
20260508185322 20 247 6.4 24.1 0.00 0.00 0.00 38 1010.8
20260508184829 20 242 8.0 24.1 0.00 0.00 0.00 37 1010.7
20260508184337 20 255 6.4 17.7 0.00 0.00 0.00 39 1010.8
20260508183841 20 157 4.8 17.7 0.00 0.00 0.00 37 1010.8
20260508183346 20 257 8.0 17.7 0.00 0.00 0.00 38 1010.8
20260508182849 20 254 8.0 17.7 0.00 0.00 0.00 38 1010.7
20260508182332 20 245 4.8 16.1 0.00 0.00 0.00 36 1010.8
20260508181836 20 245 9.7 17.7 0.00 0.00 0.00 36 1010.8
20260508181401 21 227 8.0 17.7 0.00 0.00 0.00 42 1010.9
20260508180825 21 238 8.0 20.9 0.00 0.00 0.00 41 1010.9
20260508180333 21 219 9.7 20.9 0.00 0.00 0.00 38 1011.0
20260508175838 21 243 4.8 17.7 0.00 0.00 0.00 40 1011.1
20260508175340 21 233 6.4 29.0 0.00 0.00 0.00 41 1011.2
20260508174827 20 286 11.3 29.0 0.00 0.00 0.00 42 1011.1
20260508174333 20 250 4.8 20.9 0.00 0.00 0.00 39 1011.2
20260508173841 20 261 12.9 20.9 0.00 0.00 0.00 40 1011.4
20260508173326 20 278 14.5 20.9 0.00 0.00 0.00 42 1011.4
20260508172830 20 240 9.7 22.5 0.00 0.00 0.00 40 1011.4
20260508172334 20 215 8.0 22.5 0.00 0.00 0.00 45 1011.4
20260508171838 19 255 8.0 24.1 0.00 0.00 0.00 44 1011.4
20260508171403 19 255 6.4 24.1 0.00 0.00 0.00 44 1011.5
20260508170846 19 263 6.4 20.9 0.00 0.00 0.00 41 1011.6
20260508170333 20 269 9.7 25.7 0.00 0.00 0.00 39 1011.7
20260508165839 20 264 17.7 25.7 0.00 0.00 0.00 40 1011.9
20260508165406 20 248 14.5 25.7 0.00 0.00 0.00 40 1012.0
20260508164849 19 263 8.0 17.7 0.00 0.00 0.00 46 1012.0
20260508164332 18 265 8.0 25.7 0.00 0.00 0.00 43 1012.1
20260508163857 18 272 17.7 25.7 0.00 0.00 0.00 41 1012.2
20260508163340 18 278 14.5 20.9 0.00 0.00 0.00 43 1012.2
20260508162845 18 291 6.4 19.3 0.00 0.00 0.00 45 1012.3